Location: Coupvray
(48.8929°N, 2.7967°E)
Time: 07:58:48
(UTC+00:00)

X-37B - Pass Details

Date: 03 October 2020
Orbit: 382 x 392 km, 45.0° (Epoch: 15 October)

Event Time Altitude Azimuth Distance (km) Brightness Sun altitude
Rises 18:10:13 0° 201° (SSW) 2,255 4.7 -8.6°
Reaches altitude 10° 18:14:02 10° 154° (SSE) 1,403 3.1 -9.3°
Maximum altitude 18:14:23 10° 148° (SSE) 1,396 3.0 -9.3°
Drops below altitude 10° 18:14:44 10° 141° (SE) 1,404 3.0 -9.4°
Enters shadow 18:15:21 - 131° (SE) 1,455 3.0 -9.5°
